Location: Marcé
(47.5801°N, 0.3280°W)
Time: 17:12:09
(UTC+01:00)

SR - Pass Details

Date: 02 December 2021
Orbit: 582 x 872 km, 66.7° (Epoch: 22 January)

Event Time Altitude Azimuth Distance (km) Brightness Sun altitude
Rises 00:33:35 0° 194° (SSW) 3,002 - -64.1°
Reaches altitude 10° 00:36:02 10° 187° (S) 2,048 - -64.2°
Maximum altitude 00:40:21 42° 117° (ESE) 891 - -64.3°
Drops below altitude 10° 00:44:28 10° 47° (NE) 1,945 - -64.3°
Sets 00:46:44 0° 40° (NE) 2,832 - -64.4°
